Powrót do katalogu

SL-3 R/B

AktywnyPO
NORAD 13819·ROCKET BODY·🇷🇺 Russia

Wystrzelony Feb 16, 1983 z Plesetsk Cosmodrome

Loading…

Następne Przeloty (najbliższe 24 godziny)

TLE

ŚwieżeSource: Space-Track

Epoka: Sep 14, 2026, 18:36 UTC

1 13819U 83010B   26257.77553813  .00014175  00000-0  23926-3 0  9998
2 13819  81.1002 129.4573 0015537 100.3075 259.9925 15.51358163387214

Śledź SL-3 R/B w czasie rzeczywistym z AllMySat

Download on the App Store